Location: Pandora
(40.9481°N, 83.9611°W)
Time: 15:19:08
(UTC-04:00)

N. Korean satellite - Pass Details

Date: 23 September 2021
Orbit: 450 x 495 km, 97.3° (Epoch: 16 October)

Event Time Altitude Azimuth Distance (km) Brightness Sun altitude
Rises 06:44:12 0° 14° (NNE) 2,519 10.5 -8.4°
Reaches altitude 10° 06:46:16 10° 17° (NNE) 1,645 9.6 -8.1°
Maximum altitude 06:49:47 67° 101° (E) 523 7.0 -7.4°
Drops below altitude 10° 06:53:20 10° 184° (S) 1,657 9.2 -6.7°
Sets 06:55:24 0° 187° (S) 2,540 10.1 -6.3°
